User: anonymous   Login
Location: Cherry Springs State Park
(41.6616°N, 77.8240°W)
Time: 10:25:46
(UTC-04:00)
Language:

Cosmos 1939 Rocket - Orbit

View from above orbital plane
View from above orbital plane
View from above satellite
View from above satellite

Ground track
Ground track

The orbit data is extracted from the following two-line orbital elements,

1 19046U 88032B   18262.56239714 -.00000175 +00000-0 -85272-5 0  9991
2 19046 097.4736 299.5300 0036172 207.7245 152.2053 15.02483331641326
Epoch (UTC): 19 September 2018 13:29:51
Eccentricity: 0.0036172
inclination: 97.4736°
perigee height: 534 km
apogee height: 584 km
right ascension of ascending node: 299.5300°
argument of perigee: 207.7245°
revolutions per day: 15.02483331
mean anomaly at epoch: 152.2053°
orbit number at epoch: 64132

The dashed part of the orbit path shows where the satellite is in the earth's shadow,  

DLR